Regional Weather Roundup
Issued by NWS Portland, ME

Current Version | Previous Version | Text Only | Print | Product List | Glossary Off
Versions: 1 2 3 4 5 6 7 8 9 10 11 12 13 14 15 16 17 18 19 20 21 22 23 24 25 26 27 28 29 30 31 32 33 34 35 36 37 38 39 40 41 42 43 44 45 46 47 48 49 50
000 ASUS41 KGYX 252205 RWRGYX WEATHER ROUNDUP FOR MAINE AND NEW HAMPSHIRE NATIONAL WEATHER SERVICE GRAY ME 600 PM EDT SAT MAR 25 2017 MEZ002-005-006-010-012-015-018-020-021-024-026-027-029-252300- MAINE CITY SKY/WX TMP DP RH WIND PRES REMARKS PORTLAND MOCLDY 40 30 67 W8 30.29R BAR HARBOR MOCLDY 42 23 46 VRB6 30.24R WISCASSET CLOUDY 42 31 64 SW3 30.28R ROCKLAND CLOUDY 43 25 49 NW3 30.26R FRYEBURG CLOUDY 40 32 73 CALM 30.29R LEWISTONAUBURN CLOUDY 41 23 48 NW13 30.28R AUGUSTA PTCLDY 41 22 46 N8 30.26R WATERVILLE PTCLDY 41 22 46 N9 30.24R BANGOR PTCLDY 40 17 39 NW9 30.25R GREENVILLE N/A 34 5 29 NW9G17 30.19R MILLINOCKET CLEAR 38 5 25 NW12 30.25R HOULTON CLEAR 33 6 32 N12 30.22R PRESQUE ISLE CLEAR 32 6 33 N16 30.25R FRENCHVILLE CLEAR 27 0 31 NW14 30.24R WCI 16 CARIBOU CLEAR 30 6 36 NW17 30.24R WCI 18 $$ NHZ002-005-008-009-011-012-014-252300- NEW HAMPSHIRE CITY SKY/WX TMP DP RH WIND PRES REMARKS PORTSMOUTH CLOUDY 36 34 94 SW5 30.30R ROCHESTER CLOUDY 37 33 85 CALM 30.28S NASHUA CLOUDY 36 35 96 CALM 30.32R MANCHESTER CLOUDY 37 33 85 CALM 30.30R CONCORD CLOUDY 38 34 85 VRB5 30.30S LACONIA MOSUNNY 39 29 67 VRB3 30.29R PLYMOUTH FAIR 38 26 60 NW7 30.31R BERLIN SUNNY 36 17 46 N6 30.28R WHITEFIELD MOSUNNY 36 21 54 W7 30.30R JAFFREY CLOUDY 36 33 89 VRB3 30.28R KEENE CLOUDY 36 34 92 N7 30.32R LEBANON CLOUDY 38 30 73 N9 30.32R MT WASHINGTON PTSUNNY 19 -13 23 NW44 N/A WCI -2 $$ VTZ005-007-008-252300- VERMONT CITY SKY/WX TMP DP RH WIND PRES REMARKS ST JOHNSBURY N/A 37 23 56 MISG 30.31S MONTPELIER PTSUNNY 33 28 81 NW6 30.35S BURLINGTON MOSUNNY 33 20 58 NW10 30.40R $$ MAZ007-012-024-CTZ003-RIZ002-NYZ038-NYZ072-252300- SOUTHERN NEW ENGLAND AND NY CITY SKY/WX TMP DP RH WIND PRES REMARKS BOSTON CLOUDY 37 34 89 N8 30.32R WORCESTER CLOUDY 35 33 92 N7 30.27S NANTUCKET CLOUDY 39 32 76 VRB6 30.24F PROVIDENCE CLOUDY 40 36 86 NE7 30.29R HARTFORD CLOUDY 38 36 92 N8 30.31R ALBANY CLOUDY 38 32 79 N5 30.35R NEW YORK CITY CLOUDY 50 38 63 E8 30.27R $$ ANZ081-ANZ082-ANZ150-NHZ014-MEZ023>029-252300- COASTAL MARINE OBSERVATIONS STATION/POSITION TIME TEMP WIND PRES WAVE AIR SEA DIR/SP/G HT/PER (UTC) (F) (DEG/KT/KT) (MB) (FT/S) MOUNT DESERT ROC 2100 39 1023.9S MATINICUS ROCK 2100 38 260/ 14/ 15 1023.9S ISLE OF SHOALS 2100 35 280/ 6/ 7 1025.7R JEFFREYS LEDGE 2106 40 N/A 3/ 8 CASHES LEDGE BUO 2050 39 40 1025.3 3/ 8 GEORGES BANK BUO 2050 40 41 1021.6 7/ 9 $$ .............KEY.............. WCI - WIND CHILL TC - TEMPERATURE IN CELSIUS VSB - VISIBILITY IN MILES HX - HEAT INDEX FAIR- INDICATES FEW OR NO CLOUDS BELOW 12,000 FT, WITH NO SIGNIFICANT WEATHER AND/OR OBSTRUCTIONS TO VISIBILITY.

USA.gov is the U.S. government's official web portal to all federal, state and local government web resources and services.